Theta_e
302 303 303 303 303 303 303 304 305 304 303 302 304 305 305 306 305 305 308 310 309 308 307 306 304 303 303 304 304 306 308 319 328 330 330 330 330 332 331 329 327 326 325 325
301 301 302 302 302 303 304 304 304 303 303 303 305 306 306 305 305 306 309 310 307 306 306 305 304 303 302 303 303 304 305 307 316 328 330 330 330 330 330 329 328 326 325 324
302 301 301 300 301 303 301 303 302 302 303 304 305 307 306 306 305 306 310 308 306 305 305 305 304 302 302 302 302 302 303 303 305 314 323 330 330 329 329 329 328 326 325 324
299 299 299 300 301 302 301 302 301 302 304 309 304 310 307 306 305 305 308 307 306 306 305 304 304 302 301 301 300 301 301 301 303 304 309 325 329 328 328 328 327 326 325 324
297 298 298 301 301 301 300 300 301 303 305 305 307 307 307 306 306 307 309 306 306 305 305 304 303 301 300 299 299 299 300 300 301 303 305 315 327 328 327 327 327 326 325 325
298 297 300 300 300 299 299 303 302 303 306 309 306 308 307 306 306 308 306 306 306 305 303 302 301 300 299 298 297 297 298 299 300 302 305 311 325 327 326 325 324 323 323 323
297 296 297 297 297 299 303 306 308 309 310 311 305 304 306 305 305 307 306 306 305 302 301 301 300 298 296 296 295 295 297 298 299 301 303 309 319 327 324 322 320 316 317 318
298 301 296 296 296 299 302 305 305 307 309 307 304 306 305 306 307 305 306 305 302 300 300 297 296 295 294 294 294 294 296 297 298 300 301 306 316 325 321 321 318 317 316 317
297 296 295 296 296 299 303 306 302 305 305 305 306 305 304 306 306 305 306 303 301 299 296 294 293 293 293 293 293 294 295 296 297 299 301 304 313 323 320 319 320 318 316 314
296 298 294 295 297 300 301 300 303 304 307 307 306 306 306 305 307 306 304 301 299 296 293 293 292 292 291 292 293 293 294 295 297 299 300 303 308 320 318 318 313 313 314 311
296 296 297 294 299 298 300 304 303 303 304 307 307 307 304 305 305 304 302 300 297 294 292 292 291 291 291 292 293 294 295 296 297 300 301 303 310 316 316 313 310 308 308 304
297 297 297 296 294 293 297 300 302 301 302 302 302 303 301 304 303 301 301 299 295 293 292 291 290 290 291 292 293 293 294 296 297 298 302 306 308 310 310 306 303 302 301 298
297 295 298 301 297 296 297 298 300 298 298 300 303 306 305 304 302 301 300 296 294 292 290 289 289 290 290 290 291 292 293 295 297 300 301 300 301 300 298 297 296 296 294 293
295 295 296 298 296 293 294 294 296 296 298 300 303 306 304 303 301 300 299 295 293 291 289 288 288 288 288 289 290 291 292 296 296 296 294 293 293 293 293 292 293 293 292 292
297 296 293 294 295 295 295 295 295 296 297 299 305 300 301 301 299 299 297 294 292 290 288 288 287 287 287 288 290 290 290 291 292 291 290 290 289 290 291 290 291 291 290 289
295 296 293 292 292 295 295 295 296 296 296 296 297 299 301 300 300 300 296 293 292 289 287 287 286 286 286 286 287 289 289 289 289 289 289 290 289 289 288 287 287 287 286 286
295 294 293 297 290 290 296 295 297 299 297 298 303 305 302 298 300 299 294 292 290 288 287 286 286 285 285 285 285 286 287 287 287 287 287 286 285 285 284 284 284 284 284 285
294 293 292 295 290 301 299 295 296 299 299 300 301 301 301 298 299 296 293 292 289 287 286 285 285 284 284 284 284 284 284 284 284 284 284 284 284 284 284 283 283 283 284 283
295 293 291 292 292 295 296 297 299 301 301 302 302 299 296 301 299 298 293 291 289 287 286 284 284 284 283 283 283 283 283 283 283 283 283 283 283 283 283 283 283 283 283 282
295 293 292 286 294 300 296 298 299 300 304 301 299 295 299 299 305 300 293 291 288 286 285 284 283 284 283 283 283 283 283 283 283 283 283 283 283 283 283 283 283 283 282 282
292 292 293 291 294 295 293 295 298 301 302 299 295 294 299 299 297 294 291 291 288 286 285 284 283 282 283 283 283 283 283 283 283 283 283 283 283 283 283 282 282 282 281 281
292 292 291 288 291 298 291 291 297 299 297 295 293 294 298 297 295 292 291 290 288 286 284 284 283 282 282 282 283 282 282 282 283 283 283 283 283 283 282 282 281 281 281 280
293 294 294 293 295 294 291 296 296 296 297 294 293 294 296 297 295 292 291 290 287 285 285 284 285 284 282 282 283 282 281 282 282 281 281 281 281 281 281 280 280 280 280 280
288 288 291 290 295 292 292 292 291 294 295 293 292 294 295 297 294 292 290 289 286 284 283 282 283 283 282 283 284 283 284 285 285 283 282 282 281 280 280 280 280 280 280 280
290 288 291 291 291 292 292 291 291 291 291 291 291 293 295 295 293 292 290 288 285 283 282 281 281 281 280 281 281 282 283 283 282 281 280 280 280 280 280 280 280 280 280 280
288 291 292 296 293 292 292 291 289 291 291 291 291 291 291 293 292 290 289 288 285 283 281 281 280 280 280 280 280 281 281 282 281 280 280 280 280 279 279 279 279 279 280 280
Wind_Speed
4 6 8 8 5 4 8 11 15 16 9 14 12 24 22 17 10 5 4 3 6 10 10 13 16 19 19 17 17 15 15 22 34 35 35 38 31 33 36 40 38 39 42 47
2 5 3 5 3 5 9 13 12 12 3 12 17 23 18 7 3 6 5 4 7 11 14 16 21 21 21 20 18 18 18 19 20 36 35 38 36 36 37 36 38 42 43 46
2 2 4 3 3 8 12 6 13 12 21 4 12 12 5 3 5 6 7 6 7 10 14 17 20 25 23 21 20 20 20 21 23 27 24 37 32 30 29 36 37 43 43 43
2 2 3 3 3 6 7 1 14 16 11 6 8 6 10 3 11 9 9 7 10 15 16 18 20 27 23 22 23 22 22 23 22 25 29 29 36 31 36 36 37 39 42 42
2 2 3 1 4 5 8 17 18 14 8 7 3 4 8 11 7 8 7 11 15 16 19 24 21 26 25 24 26 26 24 24 23 23 26 27 28 34 33 34 38 41 42 46
2 1 2 3 9 4 13 12 3 2 1 3 3 4 12 6 7 8 8 12 17 22 26 24 27 25 29 32 28 26 26 26 23 21 23 24 25 25 22 31 33 35 40 42
4 1 0 2 5 1 12 7 4 3 2 4 2 9 12 14 14 11 11 20 22 26 25 23 21 25 31 31 29 27 25 25 22 21 21 21 26 28 33 36 32 28 30 32
5 2 1 2 2 4 4 4 3 6 5 12 16 8 6 6 5 6 17 19 24 25 18 24 24 25 29 30 28 27 26 26 22 20 21 20 22 26 28 35 32 36 36 38
3 4 1 2 1 2 1 1 2 5 6 5 5 7 14 4 8 20 24 23 25 17 23 22 23 27 28 28 27 26 26 24 22 21 19 19 17 25 27 29 36 36 34 32
2 6 2 1 1 2 2 4 2 2 5 7 7 13 12 14 19 20 22 24 22 24 23 22 21 25 29 28 26 26 24 25 22 20 18 17 17 28 28 31 28 30 32 32
3 2 0 1 4 1 2 2 3 3 3 4 7 9 4 13 20 23 24 25 24 23 22 22 21 28 27 26 24 22 22 20 18 16 16 13 11 28 28 27 28 28 29 27
4 2 5 3 2 3 3 2 2 3 2 5 6 9 6 13 21 24 21 20 24 22 21 20 21 26 25 24 22 20 18 17 16 15 12 14 23 27 28 27 26 25 26 27
5 2 5 2 3 3 4 5 5 1 1 9 4 9 15 19 23 22 20 21 22 21 22 20 20 19 20 24 20 17 16 16 12 11 13 21 24 25 26 26 25 26 28 32
5 3 5 5 4 2 7 5 7 4 4 5 11 19 24 25 25 22 19 20 19 19 19 18 18 18 21 23 18 15 16 9 13 16 18 20 22 27 30 30 30 31 31 33
4 4 5 11 17 15 18 19 14 15 12 7 10 13 25 21 21 16 15 21 20 19 19 18 18 17 18 22 20 19 20 20 21 24 25 27 25 29 36 33 38 37 34 34
3 3 3 5 4 3 9 16 17 16 16 18 23 25 12 18 17 16 17 20 20 19 18 18 18 17 17 22 21 20 22 23 27 27 27 31 34 29 33 37 39 41 40 38
5 2 2 5 6 11 7 8 12 6 10 6 8 11 13 18 18 14 18 18 18 18 17 17 17 15 20 22 22 22 22 26 29 29 28 30 34 32 32 38 40 36 42 41
6 2 1 5 6 3 1 2 1 7 10 12 11 14 11 14 13 4 14 17 17 16 16 15 14 19 22 22 23 24 27 28 31 31 31 33 36 33 35 40 37 37 44 38
4 3 1 2 3 10 4 3 5 5 5 4 6 10 12 13 9 3 15 13 13 14 11 16 19 20 21 21 21 25 28 30 31 30 32 32 34 35 36 39 34 36 42 36
5 4 1 2 2 4 1 3 1 4 4 5 5 7 9 13 8 6 14 13 14 16 17 18 21 21 21 20 21 25 25 29 29 30 32 36 36 38 36 34 33 35 36 34
4 4 8 5 5 10 10 5 3 2 1 4 3 2 4 3 2 6 8 9 14 14 16 17 19 20 22 21 22 22 24 25 26 31 34 35 35 37 36 35 31 30 31 30
9 9 5 4 4 8 11 8 6 1 3 4 4 3 2 2 1 2 4 7 10 13 15 16 17 20 23 22 21 22 23 21 26 30 31 30 30 30 31 36 30 29 29 27
5 6 5 11 7 2 13 1 6 2 3 4 3 5 3 3 2 0 1 4 7 10 10 11 14 16 18 20 18 22 20 24 27 29 27 28 28 27 24 24 24 22 21 21
6 7 4 2 6 19 17 13 10 7 7 4 4 7 6 3 2 2 1 1 2 4 6 8 11 14 14 17 20 21 24 27 30 29 27 26 26 24 22 22 21 22 20 17
3 11 5 7 14 14 16 14 11 9 7 6 6 7 6 5 4 4 3 3 2 3 4 7 10 10 11 13 15 15 19 21 24 24 22 20 20 19 19 17 15 17 15 13
8 8 8 8 7 2 3 4 4 12 10 11 10 7 5 6 6 5 4 4 4 4 6 7 8 10 9 10 11 11 13 16 20 19 16 14 15 15 15 15 13 9 10 9
Wind_Direction
24 45 35 4 2 308 287 286 291 296 331 324 306 296 307 313 310 296 200 245 316 326 323 322 330 336 332 323 318 300 294 271 233 220 213 213 213 196 198 202 204 202 201 205
166 63 27 321 318 303 298 293 309 305 241 328 316 302 309 301 253 215 203 269 321 324 328 334 333 332 329 320 315 309 298 288 285 236 220 215 212 206 206 198 201 203 201 200
52 83 329 323 323 330 323 276 325 314 315 283 306 287 283 265 223 216 222 274 291 313 317 326 327 325 320 316 312 306 300 293 285 266 265 205 209 201 204 190 202 200 202 200
55 49 326 311 321 341 311 313 306 302 314 302 18 286 301 225 289 236 233 271 319 329 323 322 320 317 313 307 306 299 296 292 286 278 270 265 199 199 198 198 200 202 204 202
29 327 333 339 346 330 276 316 294 300 275 318 173 257 272 299 294 252 259 319 323 326 321 317 312 312 306 304 303 297 291 287 283 277 271 271 252 206 193 193 195 195 199 206
323 309 270 339 303 281 306 301 306 183 273 256 203 251 283 301 298 292 288 316 325 326 320 315 310 305 302 304 299 293 288 282 281 275 275 265 252 213 190 181 185 190 196 198
323 126 120 350 316 182 348 330 341 332 307 284 152 296 264 295 294 283 313 325 328 321 319 314 313 307 302 299 297 293 285 279 279 275 273 261 267 216 187 184 184 184 184 186
341 306 349 24 7 324 6 356 39 306 310 297 290 236 281 317 307 312 326 327 323 319 320 311 309 308 303 298 294 289 283 279 275 273 270 258 258 232 191 189 186 192 196 196
321 262 230 213 1 253 92 358 22 264 248 273 258 274 286 12 331 325 321 321 322 321 319 316 312 310 306 299 293 288 281 277 274 271 268 264 260 216 200 191 200 200 200 200
203 288 165 11 259 211 277 355 246 215 303 298 276 298 314 347 330 320 327 327 326 325 323 319 319 313 308 301 295 283 277 273 271 267 264 263 282 205 195 193 188 190 199 202
172 269 140 271 197 260 196 186 216 281 257 290 309 300 5 343 328 336 330 329 331 329 325 325 321 319 313 308 297 286 279 269 262 261 259 256 232 176 186 185 184 186 187 186
188 205 269 251 139 274 231 216 218 248 267 262 275 274 286 331 340 338 324 330 333 330 328 328 326 322 322 317 310 297 282 268 258 253 256 206 172 169 169 169 169 172 168 168
184 225 303 177 156 171 222 193 207 110 275 246 274 277 313 326 337 332 325 336 333 333 333 334 332 333 332 325 320 312 291 260 246 237 190 161 157 154 148 148 149 150 147 143
179 193 234 248 301 4 266 237 230 162 238 267 246 283 301 325 334 329 334 336 334 338 339 337 339 340 337 335 339 350 4 123 127 128 118 115 125 133 133 134 134 133 133 134
198 254 217 263 270 278 274 268 250 228 222 240 287 301 301 315 330 324 333 335 340 345 345 345 346 344 346 350 4 26 42 67 94 95 95 96 102 113 119 118 120 121 120 118
178 268 298 280 282 258 271 259 250 241 242 255 268 280 279 333 327 333 343 341 345 348 347 348 348 351 355 1 11 34 50 63 79 83 87 97 100 96 105 108 109 114 112 112
169 229 335 269 340 310 267 240 199 186 193 199 259 297 327 326 327 340 344 347 347 346 349 351 355 357 0 8 19 36 52 68 74 77 84 89 95 91 96 101 102 102 103 105
147 153 278 289 312 270 42 278 178 242 257 227 267 281 310 304 308 2 354 350 347 348 352 354 359 2 8 19 35 49 58 67 73 75 79 84 90 97 97 96 98 99 101 102
174 159 204 287 273 299 258 182 178 191 279 206 239 302 323 322 309 88 2 356 348 347 354 359 5 12 16 27 44 59 63 70 72 75 78 84 91 92 93 95 102 102 101 100
166 140 234 158 243 259 55 151 75 140 264 183 241 307 330 337 14 0 343 354 358 360 6 8 14 21 25 32 57 66 68 73 77 83 86 90 91 91 93 97 96 100 106 109
170 196 222 196 251 279 246 151 159 246 75 175 203 276 322 342 302 319 328 357 9 11 18 21 27 31 30 39 57 64 73 76 87 92 95 96 100 102 104 103 104 108 108 110
176 166 194 155 221 275 162 133 205 138 142 154 182 182 259 272 296 302 335 1 9 13 17 33 41 36 38 44 56 62 59 74 89 94 94 96 100 105 111 116 116 115 115 113
225 210 187 199 217 299 202 289 197 194 160 172 169 171 219 253 231 216 354 18 17 19 28 40 66 66 52 59 67 69 64 84 89 85 82 89 99 104 106 109 112 110 111 111
225 188 235 187 247 236 235 241 232 222 225 167 170 170 190 216 192 166 147 61 73 44 39 62 72 72 66 74 86 96 102 107 108 104 106 113 112 113 116 117 121 123 125 130
181 157 192 258 278 266 257 239 235 226 218 194 169 175 190 176 187 184 175 170 153 124 107 94 89 86 83 88 94 105 115 120 116 116 118 116 119 121 123 124 134 143 145 152
185 188 186 231 221 233 216 177 180 202 188 178 166 172 192 186 179 179 175 174 170 162 143 126 116 115 110 107 108 115 124 126 123 117 117 119 121 121 121 119 108 117 147 159